Regional Weather Roundup
Issued by NWS

Home | Current Version | Previous Version | Text Only | Print | Product List | Glossary Off
Versions: 1 2 3 4 5 6 7 8 9 10 11 12 13 14 15 16 17 18 19 20 21 22 23 24 25 26 27 28 29 30 31 32 33 34 35 36 37 38 39 40 41 42 43 44 45 46 47 48 49 50

000
ASUS43 KMKX 241921
RWRWI

WISCONSIN REGIONAL WEATHER ROUNDUP
NATIONAL WEATHER SERVICE MILWAUKEE/SULLIVAN WI
200 PM CDT SAT JUN 24 2017

NOTE: "FAIR" INDICATES FEW OR NO CLOUDS BELOW 12,000 FEET WITH NO
SIGNIFICANT WEATHER AND/OR OBSTRUCTIONS TO VISIBILITY.

WIZ001-002-006>008-014>016-023>028-242000-
NORTHWEST WISCONSIN

CITY           SKY/WX    TMP DP  RH WIND       PRES   REMARKS
SUPERIOR ARPT  NOT AVBL
ASHLAND        CLOUDY    59  50  72 W13G23    29.94R
HAYWARD        PTSUNNY   63  41  44 VRB6      29.94F
SIREN          CLOUDY    61  42  48 W13G18    29.98R
CUMBERLAND     CLOUDY    59  41  51 W15G23    29.98R
RICE LAKE      CLOUDY    64  40  42 W15       29.99S
CHETEK         PTSUNNY   63  43  47 W10G20    29.97S
LADYSMITH      PTSUNNY   64  46  51 W12       29.97S
EAU CLAIRE     CLOUDY    63  40  42 W15       29.98S
MENOMONIE      MOSUNNY   67  43  41 W15G22    29.99F
NEW RICHMOND   LGT RAIN  60  41  49 NW10G30   30.00S
OSCEOLA        CLOUDY    58  45  60 W6        30.02S
$$

WIZ003>005-009-010-017-018-242000-
NORTH CENTRAL WISCONSIN

CITY           SKY/WX    TMP DP  RH WIND       PRES   REMARKS
MANITOWISH WTR CLOUDY    57  52  84 NW9       29.92S
ARBOR VITAE    CLOUDY    60  50  69 W9        29.91F
WOODRUFF       CLOUDY    60  50  69 W9        29.91F
RHINELANDER    LGT RAIN  57  50  77 W10G21    29.93S
EAGLE RIVER    CLOUDY    56  48  73 NW10      29.91S
LAND O LAKES   CLOUDY    57  53  87 W8        29.93S
PHILLIPS       CLOUDY    57  47  69 NW13      29.94S
TOMAHAWK       NOT AVBL
MEDFORD        PTSUNNY   62  46  55 W16G23    29.95S
MERRILL        CLOUDY    64  44  49 W16       29.94S
$$

WIZ029-030-035-036-043>047-242000-
CENTRAL WISCONSIN

CITY           SKY/WX    TMP DP  RH WIND       PRES   REMARKS
WAUSAU         PTSUNNY   64  42  44 W16       29.93S
MOSINEE        PTSUNNY   61  43  51 W16G25    29.96S
MARSHFIELD     MOSUNNY   64  44  48 W18G26    29.97S
STEVENS POINT  PTSUNNY   63  40  43 W17G28    29.96S
WAUPACA        PTSUNNY   69  41  35 W21G29    29.95S
WAUTOMA        PTSUNNY   67  44  43 NW15G28   29.97S
WISC RAPIDS    PTSUNNY   66  43  43 W13G25    29.98S
CAMP DOUGLAS   PTSUNNY   66  46  48 W14G26    29.99S
$$

WIZ011>013-019>022-031-037>040-048>050-242000-
NORTHEAST WISCONSIN

CITY           SKY/WX    TMP DP  RH WIND       PRES   REMARKS
ANTIGO         CLOUDY    59  47  64 W17       29.94R
SHAWANO        CLOUDY    65  49  55 W12G25    29.92S
OCONTO         PTSUNNY   68  52  58 W15G23    29.89S
STURGEON BAY     N/A     62  55  77 NW13        N/A
GREEN BAY      CLOUDY    68  53  58 W17G25    29.92R
MANITOWOC      PTSUNNY   68  49  50 W18G25    29.92R
APPLETON       PTSUNNY   66  39  37 W21G28    29.93S
CLINTONVILLE   CLOUDY    66  41  39 W20       29.93S
OSHKOSH        MOSUNNY   68  46  45 W17G24    29.94S
$$

WIZ032>034-041-042-053>061-242000-
SOUTHWEST WISCONSIN

CITY           SKY/WX    TMP DP  RH WIND       PRES   REMARKS
LA CROSSE      PTSUNNY   72  43  35 W15G25    30.01F
SPARTA         PTSUNNY   67  44  43 NW24G30   30.01F
VIROQUA        PTSUNNY   64  44  48 W13G22    30.04S
BOSCOBEL       MOSUNNY   69  42  37 NW14G21   30.04S
PRAIRIE DU CHI MOSUNNY   70  40  34 W12G21    30.05S
PLATTEVILLE    MOSUNNY   69  42  38 NW13G24   30.06R
$$

WIZ056-057-062-063-064-067-068-242000-
SOUTH CENTRAL WISCONSIN

CITY           SKY/WX    TMP DP  RH WIND       PRES   REMARKS
REEDSBURG      MOSUNNY   66  44  45 W16G23    30.00S
BARABOO/DELLS  PTSUNNY   67  44  43 W20G29    30.00R
LONE ROCK      MOSUNNY   68  45  43 W17G26    30.02S
MINERAL POINT  MOSUNNY   68  43  40 W22       30.04S
MADISON        PTSUNNY   67  49  52 NW13G20   29.98F
MIDDLETON      PTSUNNY   66  46  47 W20G25    30.00S
WATERTOWN      PTSUNNY   67  48  51 W13       29.98S
MONROE         MOSUNNY   68  41  37 W18G28    30.03R
JANESVILLE     PTSUNNY   70  45  40 W14G20    29.99F
$$

WIZ051-052-058>065-066-070>072-242000-
SOUTHEAST WISCONSIN

CITY           SKY/WX    TMP DP  RH WIND       PRES   REMARKS
MILWAUKEE      PTSUNNY   72  40  31 W17G28    29.97S
WAUKESHA       PTSUNNY   66  45  45 W14       29.98F
MILWAUKEE/TIMM PTSUNNY   70  41  35 W20       29.98S
RACINE         PTSUNNY   70  44  39 NW17G25   29.98F
KENOSHA        MOSUNNY   71  49  45 W15G22    29.98S
FOND DU LAC    PTSUNNY   69  43  38 W15       29.95F
SHEBOYGAN      SUNNY     68  47  46 W22G32    29.93S
WEST BEND      MOSUNNY   68  43  40 W14G22    29.96S
JUNEAU         PTSUNNY   66  47  49 W9        29.98S
$$

LSZ147-162-242000-
LAKE SUPERIOR

STATION/POSITION TIME  TEMP    WIND        PRES    WAVE
                       AIR SEA DIR/SP/G            HT/PER
                 (UTC) (F)     (DEG/KT/KT) (MB)    (FT/S)
W MID LAKE BUOY  1850   45 39  260/  8/  8 1012.5R   1/ 4
DEVILS ISLAND    1900   54     240/ 15/ 17 1012.8R
SAXON HARBOR     1830   60     260/  9/ 14 1012.9S
$$

LMZ867-665-643>646-242000-
LAKE MICHIGAN

STATION/POSITION TIME  TEMP    WIND        PRES    WAVE
                       AIR SEA DIR/SP/G            HT/PER
                 (UTC) (F)     (DEG/KT/KT) (MB)    (FT/S)
CHAMBERS ISLAND  1840   61     250/  4/  6 1011.5R
S GREEN BAY BUOY 1900   65     270/ 16/ 19 1012.0
N MID LAKE BUOY  1850   60 59  200/  8/  8 1012.0R   1
NORTHPORT PIER   1840   64     270/  4/  9 1011.5R
KEWAUNEE LAKESHO 1854   67     290/  9/ 15 1011.9R
SHEBOYGAN LAKESH 1900   67     270/ 19/ 24 1013.1R
PORT WASHINGTON  1840   70     260/ 11/ 19 1014.6F
ATWATER BUOY     1809   65 60  270/ 16/ 19 1014.7R
MILWAUKEE LAKESH 1900   68     300/ 14/ 18   N/A
S MID LAKE BUOY  1850   63 63  280/  6/  8 1014.8R   1/ 4
KENOSHA   LAKESH 1900   69     260/ 16/ 22 1014.9
$$

TC  - TEMPERATURE IN CELSIUS
VSB - VISIBILITY IN STATUTE MILES
WCI - WIND CHILL INDEX
HX  - HEAT INDEX





USA.gov is the U.S. government's official web portal to all federal, state and local government web resources and services.